Location: Saint-Michel-des-Saints
(46.6688°N, 73.9573°W)
Time: 02:17:22
(UTC-04:00)

OTV 5 (USA 277) - Visible Passes

Search period start: 18 October 2019 00:00
Search period end: 28 October 2019 00:00
Orbit: 310 x 324 km, 54.5° (Epoch: 08 October)

Date Brightness Start Highest point End Pass type
(mag) Time Alt. Az. Time Alt. Az. Time Alt. Az.
18 Oct ? 05:08:44 26° ENE 05:08:44 26° ENE 05:10:22 10° E visible
18 Oct ? 06:39:39 10° WNW 06:42:01 26° SW 06:44:23 10° SSE visible
19 Oct ? 05:23:15 40° ESE 05:23:15 40° ESE 05:25:09 10° ESE visible
20 Oct ? 05:37:53 28° S 05:37:53 28° S 05:39:32 10° SSE visible
21 Oct ? 05:52:41 13° SSW 05:52:41 13° SSW 05:53:13 10° S visible
